Weather History for KSAF - July, 2013

Change the Weather History Date:

Saturday, July 13, 2013

  Actual Average Record
Temperature  
Mean Temperature 76 °F -  
Max Temperature 91 °F 91 °F 99 °F (2003)
Min Temperature 61 °F 53 °F 53 °F (1980)
Cooling Degree Days 10    
Growing Degree Days 26 (Base 50)    
Moisture  
Dew Point 49 °F    
Average Humidity 40    
Maximum Humidity 67    
Minimum Humidity 19    
Precipitation  
Precipitation 0.00 in - - ()
Sea Level Pressure  
Sea Level Pressure 29.92 in    
Wind  
Wind Speed 7 mph (SSE)    
Max Wind Speed 22 mph    
Max Gust Speed 28 mph    
Visibility 10 miles    
Events Thunderstorm    
Averages and records for this station are not official NWS values.
T = Trace of Precipitation, MM = Missing Value Source: NWS Daily Summary

Daily Weather History Graph

Daily Weather History Graph

Search for Another Location

Airport or City:

Trip Planner

Search our weather history database for the weather conditions in past years. The results will help you decide how hot, cold, wet, or windy it might be!

Date:

Astronomy

Jul. 13, 2013 Rise Set
Actual Time 5:59 AM MDT 8:20 PM MDT
Civil Twilight 5:29 AM MDT 8:50 PM MDT
Nautical Twilight 4:53 AM MDT 9:26 PM MDT
Astronomical Twilight 4:13 AM MDT 10:05 PM MDT
Moon 11:05 AM MDT (7/13) 11:16 PM MDT (7/13)
Length of Visible Light 15h 20m
Length of Day
14h 21m
Waxing Crescent, 26% of the Moon is Illuminated
Jul 13
Waxing Crescent
Jul 15
First Quarter
Jul 22
Full
Jul 29
Last Quarter
Aug 6
New

Hourly Weather History & Observations

Time (MDT) Temp. Dew Point Humidity Pressure Visibility Wind Dir Wind Speed Gust Speed Precip Events Conditions
12:53 AM 70.0 °F 50.0 °F 49% 29.88 in 10.0 mi SSW 4.6 mph - N/A   Clear
1:53 AM 69.1 °F 52.0 °F 54% 29.88 in 10.0 mi SE 5.8 mph - N/A   Clear
2:53 AM 66.9 °F 51.1 °F 57% 29.88 in 10.0 mi SE 4.6 mph - N/A   Clear
3:53 AM 68.0 °F 51.1 °F 55% 29.87 in 10.0 mi ESE 3.5 mph - N/A   Clear
4:53 AM 62.1 °F 50.0 °F 65% 29.90 in 10.0 mi Calm Calm - N/A   Clear
5:53 AM 61.0 °F 50.0 °F 67% 29.94 in 10.0 mi NNW 3.5 mph - N/A   Clear
6:53 AM 62.1 °F 50.0 °F 65% 29.95 in 10.0 mi North 4.6 mph - N/A   Clear
7:53 AM 71.1 °F 52.0 °F 51% 29.94 in 10.0 mi NNE 6.9 mph - N/A   Clear
8:53 AM 75.0 °F 52.0 °F 44% 29.94 in 10.0 mi NNE 3.5 mph - N/A   Clear
9:53 AM 79.0 °F 51.1 °F 38% 29.93 in 10.0 mi South 3.5 mph - N/A   Clear
10:53 AM 82.0 °F 48.9 °F 31% 29.92 in 10.0 mi Variable 5.8 mph - N/A   Clear
11:53 AM 84.9 °F 46.9 °F 27% 29.89 in 10.0 mi WSW 9.2 mph 17.3 mph N/A   Clear
12:53 PM 87.1 °F 46.9 °F 25% 29.86 in 10.0 mi SSW 9.2 mph 17.3 mph N/A   Clear
1:53 PM 87.1 °F 46.0 °F 24% 29.86 in 10.0 mi South 9.2 mph - N/A   Clear
2:53 PM 90.0 °F 48.0 °F 24% 29.83 in 10.0 mi SW 19.6 mph 25.3 mph N/A   Partly Cloudy
3:53 PM 90.0 °F 44.1 °F 20% 29.82 in 10.0 mi SW 9.2 mph - N/A   Clear
4:53 PM 89.1 °F 42.1 °F 19% 29.83 in 10.0 mi SW 9.2 mph - N/A   Clear
5:35 PM 87.8 °F 48.2 °F 25% 30.17 in 10.0 mi SE 19.6 mph - N/A   Partly Cloudy
5:53 PM 88.0 °F 46.0 °F 23% 29.83 in 10.0 mi SE 21.9 mph 27.6 mph N/A   Clear
6:53 PM 82.9 °F 48.0 °F 29% 29.86 in 10.0 mi SE 13.8 mph - N/A   Clear
7:53 PM 80.1 °F 46.9 °F 31% 29.86 in 10.0 mi East 4.6 mph - N/A   Clear
8:53 PM 78.1 °F 50.0 °F 37% 29.88 in 10.0 mi North 13.8 mph 17.3 mph N/A   Mostly Cloudy
9:38 PM 73.4 °F 51.8 °F 47% 30.25 in 10.0 mi North 16.1 mph - N/A Thunderstorm Overcast
9:53 PM 73.9 °F 50.0 °F 43% 29.91 in 10.0 mi North 12.7 mph - N/A   Mostly Cloudy
10:53 PM 73.0 °F 51.1 °F 46% 29.90 in 10.0 mi North 4.6 mph - N/A   Overcast
11:25 PM 73.4 °F 51.8 °F 47% 30.26 in 10.0 mi South 6.9 mph - N/A Thunderstorm Thunderstorm
11:53 PM 72.0 °F 51.1 °F 48% 29.90 in 10.0 mi SSW 10.4 mph - N/A Thunderstorm Overcast